WA8SIE Weather Reports


time (UTC)temp
C
wind
direction
speed
KPH
gust
KPH
rain 1hr
cm
rain 24hr
cm
rain mn
cm
humidity
%
barometer
mb
20260504214511 23 210 4.8 0.0 0.00 0.00 0.00 46 1003.8
20260504214011 23 204 0.0 0.0 0.00 0.00 0.00 45 1004.1
20260504213512 23 189 0.0 0.0 0.00 0.00 0.00 47 1004.1
20260504213011 23 188 6.4 0.0 0.00 0.00 0.00 48 1004.1
20260504212511 23 199 0.0 0.0 0.00 0.00 0.00 46 1004.1
20260504211511 23 264 8.0 0.0 0.00 0.00 0.00 46 1004.1
20260504211012 23 193 6.4 0.0 0.00 0.00 0.00 46 1004.3
20260504210510 23 205 6.4 0.0 0.00 0.00 0.00 46 1004.3
20260504210011 23 195 0.0 0.0 0.00 0.00 0.00 46 1004.3
20260504205011 22 156 0.0 0.0 0.00 0.00 0.00 47 1004.5
20260504204510 22 200 6.4 0.0 0.00 0.00 0.00 46 1004.5
20260504204010 22 248 0.0 0.0 0.00 0.00 0.00 46 1004.6
20260504203510 22 184 9.7 0.0 0.00 0.00 0.00 46 1004.6
20260504203011 22 177 12.9 0.0 0.00 0.00 0.00 46 1004.6
20260504202511 22 195 0.0 0.0 0.00 0.00 0.00 46 1004.6
20260504202010 22 181 6.4 0.0 0.00 0.00 0.00 48 1004.6
20260504201512 22 226 0.0 0.0 0.00 0.00 0.00 49 1004.6
20260504201011 21 192 1.6 0.0 0.00 0.00 0.00 52 1004.6
20260504200511 21 202 11.3 0.0 0.00 0.00 0.00 51 1004.6
20260504200011 21 204 20.9 0.0 0.00 0.00 0.00 50 1004.6
20260504195011 20 188 1.6 0.0 0.00 0.00 0.00 54 1004.7
20260504194510 20 180 4.8 0.0 0.00 0.00 0.00 57 1004.7
20260504193511 20 205 11.3 0.0 0.00 0.00 0.00 56 1005.2
20260504193011 20 185 3.2 0.0 0.00 0.00 0.00 57 1005.2
20260504192010 19 198 4.8 0.0 0.00 0.00 0.00 60 1005.1
20260504191510 19 203 6.4 0.0 0.00 0.00 0.00 60 1005.1
20260504190511 21 213 3.2 0.0 0.00 0.00 0.00 53 1006.7
20260504190012 21 206 4.8 0.0 0.00 0.00 0.00 48 1006.7
20260504185510 22 238 6.4 0.0 0.00 0.00 0.00 47 1005.5
20260504185010 22 237 3.2 0.0 0.00 0.00 0.00 45 1005.5
20260504184510 22 207 0.0 0.0 0.00 0.00 0.00 45 1005.5
20260504184010 22 243 0.0 0.0 0.00 0.00 0.00 46 1005.5
20260504183510 22 212 0.0 0.0 0.00 0.00 0.00 46 1005.5
20260504183011 22 200 0.0 0.0 0.00 0.00 0.00 46 1005.5
20260504182011 23 204 8.0 0.0 0.00 0.00 0.00 44 1005.1
20260504181512 22 226 0.0 0.0 0.00 0.00 0.00 46 1005.1
20260504181012 22 210 1.6 0.0 0.00 0.00 0.00 46 1005.5
20260504180510 22 187 3.2 0.0 0.00 0.00 0.00 46 1005.5
20260504180010 22 192 12.9 0.0 0.00 0.00 0.00 47 1005.5
20260504175512 21 215 0.0 0.0 0.00 0.00 0.00 48 1005.6
20260504175010 21 253 4.8 0.0 0.00 0.00 0.00
20260504174010 21 214 3.2 0.0 0.00 0.00 0.00 49 1005.9
20260504173510 21 222 8.0 0.0 0.00 0.00 0.00 50 1005.9
20260504173010 21 203 8.0 0.0 0.00 0.00 0.00 51 1005.9
20260504172513 21 189 14.5 0.0 0.00 0.00 0.00 51 1006.3
20260504172010 20 212 6.4 0.0 0.00 0.00 0.00 52 1006.3
20260504171511 20 197 8.0 0.0 0.00 0.00 0.00 51 1006.3
20260504171011 20 202 8.0 0.0 0.00 0.00 0.00 51 1006.6
20260504170511 20 205 3.2 0.0 0.00 0.00 0.00 53 1006.6
20260504150513 15 163 0.0 0.0 0.00 0.00 0.00 66 1008.5
20260504141011 15 206 1.6 0.0 0.00 0.00 0.00 59 1009.0
20260504140511 15 195 0.0 0.0 0.00 0.00 0.00 59 1009.0
20260504110510 6 148 0.0 0.0 0.00 0.00 0.00 92 1007.6
20260504081510 8 148 0.0 0.0 0.00 0.00 0.00 84 1009.2
20260504081011 8 148 0.0 0.0 0.00 0.00 0.00 84 1009.2
20260504050511 9 148 0.0 0.0 0.00 0.00 0.00 75 1010.7
20260504050012 10 148 0.0 0.0 0.00 0.00 0.00 75 1010.7
20260504045511 10 148 0.0 0.0 0.00 0.00 0.00 75 1010.7
20260504045011 10 148 0.0 0.0 0.00 0.00 0.00 73 1010.7
20260504044011 10 148 0.0 0.0 0.00 0.00 0.00 72 1010.7
20260504043512 10 148 0.0 0.0 0.00 0.00 0.00 73 1010.7
20260504043011 10 148 0.0 0.0 0.00 0.00 0.00 72 1010.7
20260504042511 10 148 0.0 0.0 0.00 0.00 0.00 70 1010.8
20260504042011 10 148 0.0 0.0 0.00 0.00 0.00 71 1010.8
20260504041511 10 148 0.0 0.0 0.00 0.00 0.00 70 1010.8
20260504041010 10 148 0.0 0.0 0.00 0.00 0.00 68 1009.6
20260504040510 10 147 0.0 0.0 0.00 0.00 0.00 68 1009.6
20260504040011 10 148 0.0 0.0 0.00 0.00 0.00 67 1009.6
20260504035011 10 148 0.0 0.0 0.00 0.00 0.00 67 1009.8
20260504034513 10 148 0.0 0.0 0.00 0.00 0.00 67 1009.8
20260504034011 10 148 0.0 0.0 0.00 0.00 0.00 67 1009.7
20260504033511 10 148 0.0 0.0 0.00 0.00 0.00 67 1009.7
20260504033011 10 148 0.0 0.0 0.00 0.00 0.00 66 1009.7
20260504032011 10 148 0.0 0.0 0.00 0.00 0.00 65 1009.6
20260504031511 10 148 0.0 0.0 0.00 0.00 0.00 65 1009.6
20260504031010 10 148 0.0 0.0 0.00 0.00 0.00 65 1009.7
20260504030511 10 149 0.0 0.0 0.00 0.00 0.00 65 1009.7
20260504030011 10 148 0.0 0.0 0.00 0.00 0.00 65 1009.7
20260504025511 10 148 0.0 0.0 0.00 0.00 0.00 64 1009.8
20260504025011 10 148 0.0 0.0 0.00 0.00 0.00 65 1009.8
20260504024511 10 146 0.0 0.0 0.00 0.00 0.00 65 1009.8
20260504024011 10 146 0.0 0.0 0.00 0.00 0.00 66 1009.6
20260504023510 10 145 1.6 0.0 0.00 0.00 0.00 65 1009.6
20260504023011 10 146 0.0 0.0 0.00 0.00 0.00 65 1009.6
20260504022510 10 146 0.0 0.0 0.00 0.00 0.00 65 1009.4
20260504021510 10 146 0.0 0.0 0.00 0.00 0.00 64 1009.4
20260504020011 10 145 0.0 0.0 0.00 0.00 0.00 63 1009.5
20260504015511 10 146 0.0 0.0 0.00 0.00 0.00 62 1009.5
20260504014510 10 146 0.0 0.0 0.00 0.00 0.00 61 1009.5
20260504014012 10 145 3.2 0.0 0.00 0.00 0.00 61 1009.4
20260504013511 10 146 0.0 0.0 0.00 0.00 0.00 61 1009.4
20260504013011 10 145 0.0 0.0 0.00 0.00 0.00 60 1009.4
20260504012511 10 145 0.0 0.0 0.00 0.00 0.00 58 1009.4
20260504012011 10 148 3.2 0.0 0.00 0.00 0.00 58 1009.4
20260504011511 11 149 0.0 0.0 0.00 0.00 0.00 57 1009.4
20260504011010 11 148 3.2 0.0 0.00 0.00 0.00 56 1009.5
20260504010510 11 197 0.0 0.0 0.00 0.00 0.00 55 1009.5
20260504005510 11 198 0.0 0.0 0.00 0.00 0.00 53 1009.2
20260504005010 11 198 0.0 0.0 0.00 0.00 0.00 52 1009.2
20260504004512 12 197 0.0 0.0 0.00 0.00 0.00 51 1009.2
20260504004010 12 197 0.0 0.0 0.00 0.00 0.00 51 1009.4
20260504003511 12 197 0.0 0.0 0.00 0.00 0.00 50 1009.4
20260504003010 12 197 0.0 0.0 0.00 0.00 0.00 48 1009.4
20260504002510 12 198 0.0 0.0 0.00 0.00 0.00 49 1009.2
20260504002010 13 197 0.0 0.0 0.00 0.00 0.00 50 1009.2
20260504001011 13 197 0.0 0.0 0.00 0.00 0.00 41 1009.2
20260504000510 14 195 0.0 0.0 0.00 0.00 0.00 40 1009.2
20260504000010 15 195 0.0 0.0 0.00 0.00 0.00 38 1009.2
20260503235510 15 195 0.0 0.0 0.00 0.00 0.00 35 1009.2
20260503235010 15 302 0.0 0.0 0.00 0.00 0.00 34 1009.2
20260503234510 15 336 0.0 0.0 0.00 0.00 0.00 36 1009.2
20260503233510 15 336 0.0 0.0 0.00 0.00 0.00 38 1009.4
20260503233011 16 336 0.0 0.0 0.00 0.00 0.00 37 1009.4
20260503232512 16 282 0.0 0.0 0.00 0.00 0.00 34 1009.5
20260503232012 16 269 0.0 0.0 0.00 0.00 0.00 32 1009.5
20260503231010 16 269 0.0 0.0 0.00 0.00 0.00 32 1009.7
20260503230512 16 328 0.0 0.0 0.00 0.00 0.00 31 1009.7
20260503230010 16 327 0.0 0.0 0.00 0.00 0.00 35 1009.7
20260503225510 16 327 0.0 0.0 0.00 0.00 0.00 33 1009.8
20260503225012 16 328 0.0 0.0 0.00 0.00 0.00 31 1009.8
20260503224510 16 328 0.0 0.0 0.00 0.00 0.00 31 1009.8
20260503223510 16 328 0.0 0.0 0.00 0.00 0.00 30 1009.7
20260503223010 16 297 0.0 0.0 0.00 0.00 0.00 31 1009.7
20260503222510 16 11 0.0 0.0 0.00 0.00 0.00 31 1009.8
20260503222010 16 12 0.0 0.0 0.00 0.00 0.00 30 1009.8
20260503221510 16 296 0.0 0.0 0.00 0.00 0.00 31 1009.8
20260503221011 16 297 0.0 0.0 0.00 0.00 0.00 32 1010.0
20260503220011 16 192 3.2 0.0 0.00 0.00 0.00 30 1010.0
20260503215511 16 145 0.0 0.0 0.00 0.00 0.00 29 1010.1